EW7868 Weather Reports


Display with metric or nautical units.
time (UTC)temp
F
wind
direction
speed
MPH
gust
MPH
rain 1hr
in
rain 24hr
in
rain mn
in
humidity
%
barometer
mb
20260902044128 79 208 3.0 3.0 0.00 0.02 0.02 88 1013.3
20260902043623 79 212 2.0 3.0 0.00 0.02 0.02 88 1013.1
20260902043118 79 209 1.0 4.0 0.00 0.02 0.02 88 1013.3
20260902042612 80 213 3.0 3.0 0.00 0.02 0.02 88 1013.2
20260902042108 80 206 4.0 4.0 0.00 0.02 0.02 87 1013.0
20260902041607 80 215 3.0 4.0 0.00 0.02 0.02 88 1013.3
20260902041102 80 209 3.0 3.0 0.00 0.02 0.02 87 1013.2
20260902040602 80 209 1.0 4.0 0.00 0.02 0.02 87 1013.3
20260902040056 80 197 3.0 3.0 0.00 0.02 0.02 87 1013.3
20260902035555 80 222 3.0 4.0 0.00 0.02 0.02 87 1013.3
20260902035050 80 225 0.0 4.0 0.00 0.02 0.02 87 1013.0
20260902034550 80 208 2.0 3.0 0.00 0.02 0.02 86 1013.1
20260902034049 80 221 2.0 4.0 0.00 0.02 0.02 86 1013.0
20260902033548 80 198 1.0 4.0 0.00 0.02 0.02 86 1013.3
20260902033043 81 206 0.0 4.0 0.00 0.02 0.02 85 1013.3
20260902032542 81 198 3.0 4.0 0.00 0.02 0.02 85 1013.4
20260902032037 81 204 2.0 4.0 0.00 0.02 0.02 85 1013.2
20260902031532 81 186 0.0 5.0 0.00 0.02 0.02 84 1013.3
20260902031028 81 225 2.0 4.0 0.00 0.02 0.02 85 1013.1
20260902030523 81 198 0.0 4.0 0.00 0.02 0.02 84 1013.2
20260902030022 81 213 3.0 5.0 0.00 0.02 0.02 84 1013.2
20260902025517 82 212 2.0 4.0 0.00 0.02 0.02 83 1013.2
20260902025012 82 191 4.0 4.0 0.00 0.02 0.02 83 1013.3
20260902024508 82 206 2.0 5.0 0.00 0.02 0.02 82 1013.0
20260902024002 82 196 0.0 7.0 0.00 0.02 0.02 82 1013.4
20260902023458 82 210 2.0 5.0 0.00 0.02 0.02 82 1013.2
20260902022957 82 203 2.0 5.0 0.00 0.02 0.02 82 1013.2
20260902022452 82 194 0.0 4.0 0.00 0.02 0.02 82 1013.3
20260902021948 82 196 0.0 5.0 0.00 0.02 0.02 82 1013.2
20260902021443 83 197 3.0 6.0 0.00 0.02 0.02 81 1013.2
20260902020938 83 199 2.0 5.0 0.00 0.02 0.02 81 1013.0
20260902020435 83 189 2.0 5.0 0.00 0.02 0.02 81 1013.1
20260902015930 84 211 3.0 5.0 0.00 0.02 0.02 80 1013.0
20260902015425 84 205 3.0 6.0 0.00 0.02 0.02 80 1012.9
20260902014921 84 203 3.0 6.0 0.00 0.02 0.02 80 1012.7
20260902014417 84 216 2.0 5.0 0.00 0.02 0.02 80 1013.0
20260902013910 84 197 3.0 4.0 0.00 0.02 0.02 80 1012.7
20260902013406 84 209 2.0 5.0 0.00 0.02 0.02 80 1012.7
20260902012901 84 217 2.0 5.0 0.00 0.02 0.02 80 1012.8
20260902012357 85 200 4.0 6.0 0.00 0.02 0.02 79 1012.7
20260902011852 85 198 3.0 5.0 0.00 0.02 0.02 79 1012.6
20260902011347 85 211 3.0 4.0 0.00 0.02 0.02 78 1012.6
20260902010846 86 204 0.0 5.0 0.00 0.02 0.02 77 1012.4
20260902010341 86 206 3.0 5.0 0.00 0.02 0.02 77 1012.5
20260902005840 86 200 4.0 7.0 0.00 0.02 0.02 77 1012.6
20260902005335 86 201 3.0 5.0 0.00 0.02 0.02 77 1012.4
20260902004830 86 201 3.0 5.0 0.00 0.02 0.02 77 1012.4
20260902004325 86 203 3.0 4.0 0.00 0.02 0.02 77 1012.3
20260902003820 87 180 2.0 4.0 0.00 0.02 0.02 77 1012.1
20260902003315 87 203 2.0 5.0 0.00 0.02 0.02 77 1012.5
20260902002811 87 205 3.0 3.0 0.00 0.02 0.02 76 1012.2
20260902002310 87 202 2.0 3.0 0.00 0.02 0.02 76 1012.4
20260902001806 88 199 2.0 3.0 0.00 0.02 0.02 75 1012.4
20260902001301 89 199 2.0 3.0 0.00 0.02 0.02 74 1012.4
20260902000801 89 194 3.0 5.0 0.00 0.02 0.02 73 1012.0
20260902000257 89 199 2.0 3.0 0.00 0.02 0.02 72 1012.3
20260901235750 90 195 1.0 4.0 0.00 0.02 0.02 72 1012.4
20260901235245 91 194 2.0 3.0 0.00 0.02 0.02 70 1012.5
20260901234744 91 197 3.0 3.0 0.00 0.02 0.02 69 1012.1
20260901234239 91 184 4.0 4.0 0.00 0.02 0.02 69 1012.4
20260901233734 92 201 3.0 4.0 0.00 0.02 0.02 68 1012.7
20260901233231 93 194 0.0 3.0 0.00 0.02 0.02 68 1012.7
20260901232730 93 201 2.0 5.0 0.00 0.02 0.02 67 1012.7
20260901232226 94 203 0.0 4.0 0.00 0.02 0.02 66 1012.6
20260901231722 94 188 1.0 4.0 0.00 0.02 0.02 66 1012.5
20260901231218 95 202 2.0 4.0 0.00 0.02 0.02 65 1012.7
20260901230714 95 203 2.0 4.0 0.00 0.02 0.02 65 1012.6
20260901230213 95 209 0.0 4.0 0.00 0.02 0.02 64 1012.4
20260901225709 95 206 2.0 6.0 0.00 0.02 0.02 63 1012.5
20260901225203 95 189 5.0 5.0 0.00 0.02 0.02 63 1012.8
20260901224659 95 217 3.0 6.0 0.00 0.02 0.02 63 1012.3
20260901224155 95 208 2.0 5.0 0.00 0.02 0.02 63 1012.6
20260901223651 95 199 3.0 4.0 0.00 0.02 0.02 64 1012.4
20260901223146 95 201 3.0 5.0 0.00 0.02 0.02 64 1012.3
20260901222642 95 202 2.0 5.0 0.00 0.02 0.02 64 1012.4
20260901222138 96 206 2.0 3.0 0.00 0.02 0.02 62 1012.5
20260901221633 96 198 2.0 5.0 0.00 0.02 0.02 63 1012.5
20260901221129 95 200 3.0 7.0 0.00 0.02 0.02 63 1012.4
20260901220628 96 192 2.0 4.0 0.00 0.02 0.02 63 1012.5
20260901220127 95 199 3.0 5.0 0.00 0.02 0.02 64 1012.5
20260901215626 96 209 3.0 5.0 0.00 0.02 0.02 63 1012.4
20260901215121 96 216 3.0 5.0 0.00 0.02 0.02 62 1012.4
20260901214619 96 194 4.0 5.0 0.00 0.02 0.02 62 1012.4
20260901214119 97 197 4.0 5.0 0.00 0.02 0.02 61 1012.3
20260901213613 97 202 2.0 7.0 0.00 0.02 0.02 61 1012.7
20260901213107 97 199 0.0 7.0 0.00 0.02 0.02 59 1012.6
20260901212607 98 202 3.0 5.0 0.00 0.02 0.02 60 1012.6
20260901212104 98 207 3.0 5.0 0.00 0.02 0.02 58 1012.4
20260901211558 98 205 0.0 6.0 0.00 0.02 0.02 61 1012.6
20260901211055 98 208 2.0 5.0 0.00 0.02 0.02 59 1012.6
20260901210550 98 217 3.0 6.0 0.00 0.02 0.02 61 1012.6
20260901210047 97 186 3.0 5.0 0.00 0.02 0.02 60 1012.5
20260901205541 98 200 3.0 5.0 0.00 0.02 0.02 59 1012.7
20260901205036 98 63 2.0 5.0 0.00 0.02 0.02 61 1012.8
20260901204532 97 194 3.0 5.0 0.00 0.02 0.02 60 1012.6
20260901204027 97 194 3.0 6.0 0.00 0.02 0.02 62 1012.9
20260901203521 98 197 5.0 5.0 0.00 0.02 0.02 62 1012.5
20260901203016 98 196 3.0 6.0 0.00 0.02 0.02 63 1012.6
20260901202511 97 185 3.0 7.0 0.00 0.02 0.02 61 1012.8
20260901202007 98 194 1.0 6.0 0.00 0.02 0.02 60 1012.9
20260901201502 98 216 2.0 4.0 0.00 0.02 0.02 61 1012.7
20260901200956 97 190 3.0 4.0 0.00 0.02 0.02 63 1012.7
20260901200451 96 190 3.0 5.0 0.00 0.02 0.02 63 1012.8
20260901195950 97 270 0.0 6.0 0.00 0.02 0.02 64 1012.8
20260901195449 97 196 2.0 5.0 0.00 0.02 0.02 63 1012.8
20260901194943 96 188 2.0 6.0 0.00 0.02 0.02 65 1012.9
20260901194438 97 209 2.0 6.0 0.00 0.02 0.02 65 1012.8
20260901193934 96 337 0.0 6.0 0.00 0.02 0.02 64 1013.1
20260901193433 95 200 4.0 7.0 0.00 0.02 0.02 64 1013.0
20260901192932 96 225 2.0 5.0 0.00 0.02 0.02 66 1013.1
20260901192423 96 195 5.0 5.0 0.00 0.02 0.02 64 1013.0
20260901191919 95 254 1.0 8.0 0.00 0.02 0.02 66 1013.0
20260901191415 96 251 0.0 5.0 0.00 0.02 0.02 67 1013.3
20260901190910 96 197 3.0 7.0 0.00 0.02 0.02 65 1013.1
20260901190405 95 195 4.0 5.0 0.00 0.02 0.02 67 1013.2
20260901185903 96 189 4.0 4.0 0.00 0.02 0.02 68 1013.3
20260901185402 95 188 3.0 7.0 0.00 0.02 0.02 68 1013.3
20260901184857 95 345 0.0 3.0 0.00 0.02 0.02 67 1013.4
20260901184353 94 194 1.0 6.0 0.00 0.02 0.02 67 1013.2
20260901183848 94 194 5.0 8.0 0.00 0.02 0.02 68 1013.1
20260901183347 94 213 3.0 6.0 0.00 0.02 0.02 68 1013.3
20260901182844 94 191 3.0 5.0 0.00 0.02 0.02 68 1013.4
20260901182344 94 197 3.0 7.0 0.00 0.02 0.02 68 1013.4
20260901181839 94 294 1.0 4.0 0.00 0.02 0.02 69 1013.5
20260901181333 93 192 0.0 5.0 0.00 0.02 0.02 70 1013.4
20260901180832 93 201 5.0 5.0 0.00 0.02 0.02 70 1013.2
20260901180332 93 197 3.0 5.0 0.00 0.02 0.02 71 1013.6
20260901175830 93 209 2.0 7.0 0.00 0.02 0.02 72 1013.3
20260901175325 92 206 0.0 6.0 0.00 0.02 0.02 73 1013.5
20260901174820 92 0 0.0 3.0 0.00 0.02 0.02 72 1013.3
20260901174316 91 184 0.0 6.0 0.00 0.02 0.02 73 1013.4
20260901173811 91 0 0.0 4.0 0.00 0.02 0.02 74 1013.4
20260901173306 91 190 3.0 6.0 0.00 0.02 0.02 73 1013.5
20260901172803 90 209 0.0 6.0 0.00 0.02 0.02 75 1013.6
20260901172304 90 187 5.0 7.0 0.00 0.02 0.02 76 1013.7
20260901171800 90 198 2.0 5.0 0.00 0.02 0.02 75 1013.6
20260901171259 90 194 3.0 5.0 0.00 0.02 0.02 75 1013.7
20260901170758 89 120 1.0 6.0 0.00 0.02 0.02 74 1014.1
20260901170253 89 202 3.0 4.0 0.00 0.02 0.02 76 1013.9
20260901165751 89 196 3.0 7.0 0.00 0.02 0.02 77 1013.8
20260901165246 89 203 1.0 5.0 0.00 0.02 0.02 76 1013.7
20260901164743 88 192 0.0 5.0 0.00 0.02 0.02 76 1013.9
20260901164238 88 194 1.0 5.0 0.00 0.02 0.02 76 1014.0
20260901163733 87 196 4.0 7.0 0.00 0.02 0.02 77 1014.0
20260901163232 87 198 0.0 4.0 0.00 0.02 0.02 77 1013.9
20260901162728 87 195 6.0 6.0 0.00 0.02 0.02 76 1014.0
20260901162227 87 202 3.0 5.0 0.00 0.02 0.02 76 1014.1
20260901161726 87 209 0.0 3.0 0.00 0.02 0.02 79 1014.1
20260901161221 86 196 0.0 5.0 0.00 0.02 0.02 77 1014.3
20260901160717 87 198 4.0 5.0 0.00 0.02 0.02 78 1013.9
20260901160212 86 204 2.0 4.0 0.00 0.02 0.02 80 1014.3
20260901155711 86 210 2.0 8.0 0.00 0.02 0.02 78 1014.0
20260901155207 85 66 1.0 6.0 0.00 0.02 0.02 79 1013.9
20260901154701 85 203 5.0 7.0 0.00 0.02 0.02 78 1014.1
20260901154156 85 180 3.0 6.0 0.00 0.02 0.02 79 1014.1
20260901153652 84 270 2.0 6.0 0.00 0.02 0.02 79 1014.0
20260901153146 84 225 3.0 8.0 0.00 0.02 0.02 80 1013.9
20260901152640 84 203 4.0 6.0 0.00 0.02 0.02 80 1013.9
20260901152138 84 217 5.0 5.0 0.00 0.02 0.02 81 1013.9
20260901151635 84 203 1.0 8.0 0.00 0.02 0.02 80 1013.8
20260901151133 83 207 4.0 5.0 0.00 0.02 0.02 80 1013.9
20260901150633 83 201 4.0 6.0 0.00 0.02 0.02 80 1014.0
20260901150126 83 206 1.0 7.0 0.00 0.02 0.02 81 1013.8
20260901145624 83 225 3.0 5.0 0.00 0.02 0.02 81 1013.9
20260901145124 83 203 4.0 6.0 0.00 0.02 0.02 81 1013.9
20260901144620 83 198 0.0 6.0 0.00 0.02 0.02 82 1013.9
20260901144115 83 205 4.0 5.0 0.00 0.02 0.02 82 1013.6
20260901143610 83 200 4.0 5.0 0.00 0.02 0.02 82 1013.8
20260901143106 82 215 0.0 7.0 0.00 0.02 0.02 82 1013.7
20260901142602 82 195 3.0 3.0 0.00 0.02 0.02 84 1013.9
20260901142101 81 207 4.0 5.0 0.00 0.02 0.02 83 1013.6
20260901141556 81 203 4.0 5.0 0.00 0.02 0.02 84 1013.7
20260901141051 81 206 3.0 5.0 0.00 0.02 0.02 85 1014.1
20260901140549 80 196 3.0 5.0 0.00 0.02 0.02 86 1013.9
20260901140044 80 194 3.0 5.0 0.00 0.02 0.02 85 1013.8
20260901135543 80 199 4.0 5.0 0.00 0.02 0.02 84 1013.9
20260901135039 80 214 3.0 4.0 0.00 0.02 0.02 84 1013.9
20260901134535 79 265 0.0 4.0 0.00 0.02 0.02 86 1013.8
20260901134035 79 195 3.0 5.0 0.00 0.02 0.02 86 1013.8
20260901133534 79 200 0.0 6.0 0.00 0.02 0.02 86 1013.9
20260901133032 78 189 0.0 4.0 0.00 0.02 0.02 87 1014.0
20260901132527 78 209 3.0 3.0 0.00 0.02 0.02 88 1013.8
20260901132027 78 194 3.0 4.0 0.00 0.02 0.02 87 1014.2
20260901131527 78 275 0.0 6.0 0.00 0.02 0.02 87 1014.2
20260901131023 78 185 3.0 6.0 0.00 0.02 0.02 87 1014.2
20260901130522 78 184 2.0 3.0 0.00 0.02 0.02 88 1014.0
20260901130021 78 202 2.0 3.0 0.00 0.02 0.02 89 1014.0
20260901125519 77 201 2.0 3.0 0.00 0.02 0.02 90 1014.2
20260901125015 76 199 2.0 4.0 0.00 0.02 0.02 90 1013.8
20260901124510 76 196 3.0 4.0 0.00 0.02 0.02 91 1014.0
20260901124009 75 212 2.0 3.0 0.00 0.02 0.02 91 1014.2
20260901123504 75 204 2.0 3.0 0.00 0.02 0.02 91 1014.0
20260901123002 75 204 2.0 4.0 0.00 0.02 0.02 92 1013.9
20260901122457 75 198 1.0 4.0 0.00 0.02 0.02 93 1013.7
20260901121956 74 194 1.0 3.0 0.00 0.02 0.02 94 1013.9
20260901121451 74 204 2.0 4.0 0.00 0.02 0.02 94 1013.7
20260901120941 74 204 2.0 3.0 0.00 0.02 0.02 94 1013.6
20260901120441 74 203 1.0 3.0 0.00 0.02 0.02 94 1013.5
20260901115936 74 202 2.0 3.0 0.00 0.02 0.02 94 1013.6
20260901115431 74 201 2.0 4.0 0.00 0.02 0.02 94 1013.7
20260901114929 74 198 3.0 4.0 0.00 0.02 0.02 94 1013.5
20260901114424 74 206 0.0 4.0 0.00 0.02 0.02 94 1013.5
20260901113922 74 204 2.0 3.0 0.00 0.02 0.02 94 1013.5
20260901113421 74 200 1.0 3.0 0.00 0.02 0.02 93 1013.3
20260901112917 74 180 0.0 4.0 0.00 0.02 0.02 93 1013.6
20260901112411 75 206 2.0 3.0 0.00 0.02 0.02 93 1013.3
20260901111906 75 210 2.0 4.0 0.00 0.02 0.02 92 1013.4
20260901111404 75 208 2.0 3.0 0.00 0.02 0.02 93 1013.2
20260901110903 75 197 2.0 4.0 0.00 0.02 0.02 93 1013.1
20260901110359 75 203 2.0 3.0 0.00 0.02 0.02 93 1013.2
20260901105855 75 199 0.0 3.0 0.00 0.02 0.02 93 1013.0
20260901105350 75 202 2.0 3.0 0.00 0.02 0.02 93 1012.9
20260901104846 75 255 1.0 3.0 0.00 0.02 0.02 93 1012.9
20260901104341 75 203 2.0 3.0 0.00 0.02 0.02 93 1013.0
20260901103836 75 192 2.0 3.0 0.00 0.02 0.02 94 1012.7
20260901103330 74 206 2.0 3.0 0.00 0.02 0.02 94 1013.0
20260901102826 75 180 1.0 2.0 0.00 0.02 0.02 95 1013.1
20260901102320 75 186 1.0 2.0 0.00 0.02 0.02 94 1013.1
20260901101816 75 209 0.0 2.0 0.00 0.02 0.02 93 1013.2
20260901101315 75 190 0.0 2.0 0.00 0.02 0.02 93 1013.0
20260901100815 75 203 0.0 2.0 0.02 0.02 0.02 93 1013.1
20260901100310 75 98 0.0 0.0 0.02 0.02 0.02 92 1013.1
20260901095808 75 209 1.0 2.0 0.00 0.02 0.02 92 1013.1
20260901095306 75 192 1.0 3.0 0.00 0.02 0.02 92 1012.9
20260901094800 75 200 1.0 3.0 0.00 0.02 0.02 92 1012.6
20260901094255 75 206 2.0 3.0 0.00 0.02 0.02 92 1012.9
20260901093750 75 194 1.0 2.0 0.00 0.02 0.02 92 1012.7
20260901093249 75 195 2.0 3.0 0.00 0.02 0.02 92 1012.8
20260901092745 75 198 1.0 2.0 0.00 0.02 0.02 92 1012.7
20260901092240 75 203 0.0 3.0 0.00 0.02 0.02 93 1012.8
20260901091731 75 212 3.0 5.0 0.00 0.02 0.02 93 1012.4
20260901091226 75 208 2.0 3.0 0.00 0.02 0.02 93 1012.7
20260901090721 75 200 1.0 4.0 0.00 0.02 0.02 93 1012.7
20260901090216 75 201 0.0 3.0 0.00 0.02 0.02 93 1012.5
20260901085712 75 210 2.0 3.0 0.00 0.02 0.02 93 1012.4
20260901085207 75 192 0.0 3.0 0.00 0.02 0.02 93 1012.8
20260901084704 75 209 1.0 4.0 0.00 0.02 0.02 93 1012.6
20260901084200 75 202 2.0 4.0 0.00 0.02 0.02 93 1012.8
20260901083659 75 202 2.0 5.0 0.00 0.02 0.02 93 1012.7
20260901083158 75 213 2.0 6.0 0.02 0.02 0.02 93 1012.9
20260901082652 75 206 3.0 7.0 0.09 0.02 0.02 93 1012.6
20260901082148 76 204 0.0 5.0 0.05 0.01 0.01 91 1012.6
20260901081643 77 187 0.0 4.0 0.00 0.00 0.00 88 1012.8
20260901081142 77 200 5.0 5.0 0.00 0.00 0.00 87 1012.7
20260901080637 77 199 2.0 4.0 0.00 0.00 0.00 87 1012.8
20260901080136 77 187 0.0 3.0 0.00 0.00 0.00 87 1012.7
20260901075631 77 201 3.0 3.0 0.00 0.00 0.00 87 1012.5
20260901075131 77 194 3.0 4.0 0.00 0.00 0.00 87 1012.6
20260901074630 77 186 0.0 3.0 0.00 0.00 0.00 87 1012.6
20260901074126 77 202 3.0 5.0 0.00 0.00 0.00 87 1012.6
20260901073622 77 189 2.0 4.0 0.00 0.00 0.00 87 1012.6
20260901073117 77 192 0.0 2.0 0.00 0.00 0.00 87 1012.8
20260901072613 77 194 0.0 2.0 0.00 0.00 0.00 87 1012.6
20260901072107 76 194 0.0 3.0 0.00 0.00 0.00 88 1012.6
20260901071602 76 203 0.0 2.0 0.00 0.00 0.00 88 1012.6
20260901071101 77 195 0.0 2.0 0.00 0.00 0.00 88 1012.7
20260901070555 77 189 4.0 4.0 0.00 0.00 0.00 88 1012.5
20260901070051 76 195 1.0 3.0 0.00 0.00 0.00 88 1012.5
20260901065545 77 189 2.0 2.0 0.00 0.00 0.00 88 1012.5
20260901065039 77 192 0.0 3.0 0.00 0.00 0.00 88 1012.5
20260901064537 76 194 2.0 4.0 0.00 0.00 0.00 88 1012.4
20260901064033 77 194 1.0 3.0 0.00 0.00 0.00 88 1012.2
20260901063529 77 204 2.0 3.0 0.00 0.00 0.00 88 1012.3
20260901063025 77 206 0.0 4.0 0.00 0.00 0.00 88 1012.5
20260901062520 77 203 2.0 4.0 0.00 0.00 0.00 88 1012.4
20260901062016 77 180 2.0 4.0 0.00 0.00 0.00 88 1012.3
20260901061513 77 190 3.0 4.0 0.00 0.00 0.00 88 1012.3
20260901061007 77 204 2.0 5.0 0.00 0.00 0.00 88 1012.2
20260901060501 77 201 3.0 4.0 0.00 0.00 0.00 88 1012.3
20260901055955 77 188 4.0 5.0 0.00 0.00 0.00 88 1012.4
20260901055452 77 203 1.0 4.0 0.00 0.00 0.00 87 1012.5
20260901054949 78 198 0.0 5.0 0.00 0.00 0.00 87 1012.2
20260901054446 78 194 2.0 5.0 0.00 0.00 0.00 87 1012.6
20260901053941 78 205 3.0 4.0 0.00 0.00 0.00 87 1012.6
20260901053436 78 197 0.0 4.0 0.00 0.00 0.00 86 1012.5
20260901052931 78 209 2.0 6.0 0.00 0.00 0.00 86 1012.3
20260901052426 78 195 3.0 5.0 0.00 0.00 0.00 86 1012.5
20260901051926 78 198 0.0 4.0 0.00 0.00 0.00 86 1012.4
20260901051421 78 233 2.0 5.0 0.00 0.00 0.00 86 1012.5
20260901050915 78 194 5.0 5.0 0.00 0.00 0.00 86 1012.5
20260901050412 79 191 2.0 5.0 0.00 0.00 0.00 86 1012.8
20260901045911 79 209 1.0 4.0 0.00 0.04 0.04 86 1012.5
20260901045406 79 201 0.0 4.0 0.00 0.04 0.04 85 1012.5
20260901044901 79 209 3.0 5.0 0.00 0.04 0.04 85 1012.5
20260901044357 79 206 2.0 5.0 0.00 0.04 0.04 85 1012.6